METEOR 2-12 DEB, 59994

Orbit data source: Space-Track

METEOR 2-12 DEB, 59994 is space debris in LEO originally from a launch on Wed, 06 Feb 1985 UTC launched from the Plesetsk Missile And Space Complex (PKMTR). Debris objects in space refer to the collection of defunct objects orbiting the Earth. Examples of debris include non-operational satellites, rocket bodies, and fragments generated from explosions, collisions, or faulty payload assembly.

Loading next visibility...
Identifier
59994, 1985-013E
Orbit
LEO
Country
Flag of CISCIS
Related business
Manufacturer
Unknown
Mission
Spacecraft
Bus & Motor
Unknown
Mass
Unknown
Launch date (UTC)
1985-02-06 (41 years ago)
Launch vehicle
Unknown
Launch site
Plesetsk Missile And Space Complex (PKMTR)
Object type
Payload
Rocket body
Debris
Shape & HBR
Unknown shape, 0.1 m
Radar Cross Section
Small (<0.1 m²)

Expand to show TLE details & history
Last TLE update: 1 week ago

TLE from 1 week ago
0 METEOR 2-12 DEB
1 59994U 85013E   26165.10448881  .00001779  00000-0  11847-2 0  9994
2 59994  82.5188 287.2505 0033968 145.3353  34.1936 14.00426771638366
Epoch: 2026-06-14T02:30Z
TLE epoch observation values (Epoch: 2026-06-14T02:30:27.833Z)
Latitude
0.1342°
Longitude
167.20698°
Altitude
874.819 km
Speed
7.425 km/s
True Right ascension
07h 08m 55s
True Declination
0° 08' 00"
Sunlit
Object was in daylight at epoch
Visualization orbit readout
Latitude
Unknown
Longitude
Unknown
Altitude
Unknown
Speed
Unknown
Apparent Right ascension
Unknown
Apparent Declination
Unknown
Sunlit
N/A
Visualization observer readout
Local Sidereal Time
21:31:23
Azimuth
Unknown
Elevation
Unknown
Doppler factor
Unknown
Orbital elements
Apogee altitude
914.135 km
Perigee altitude
864.762 km
Semi-major axis
7,267.585 km
Eccentricity
0.0034
Inclination
82.5188°
RAAN
287.2505°
Arg. of periapsis
145.3353°
True anomaly
34.41312°
Mean anomaly
34.1936°
Eccentric anomaly
34.30328°
Mean motion
3.50314 °/min
Orbital period
102.76 mins
BSTAR
0.0011847
Loading maneuver chart data...
Computing Atmospheric mass density...
Loading historical data...
Loading historical data...
Loading historical data...
Loading historical data...
Loading historical data...
Loading historical data...
Loading historical data...

Documentation

Showing up to 5 results
|